Time,TemperatureF,DewpointF,PressureIn,WindDirection,WindDirectionDegrees,WindSpeedMPH,WindSpeedGustMPH,Humidity,HourlyPrecipIn,Conditions,Clouds,dailyrainin,SoftwareType,DateUTC
2013-06-23 00:32:00,71.0,69.0,30.04,ENE,64,0.0,0.0,95,0.00,,,0.00,,2013-06-23 05:32:00,
2013-06-23 00:42:00,70.0,68.0,30.04,ENE,64,0.0,1.0,95,0.00,,,0.00,,2013-06-23 05:42:00,
2013-06-23 00:52:00,70.0,68.0,30.04,ENE,64,0.0,0.0,95,0.00,,,0.00,,2013-06-23 05:52:00,
2013-06-23 01:02:00,70.0,68.0,30.04,ENE,64,0.0,0.0,95,0.00,,,0.00,,2013-06-23 06:02:00,
2013-06-23 01:12:00,70.0,69.0,30.04,ENE,72,0.0,0.0,96,0.00,,,0.00,,2013-06-23 06:12:00,
2013-06-23 01:22:00,70.0,69.0,30.04,ENE,69,0.0,1.0,96,0.00,,,0.00,,2013-06-23 06:22:00,
2013-06-23 01:33:00,70.0,69.0,30.04,ENE,69,0.0,1.0,96,0.00,,,0.00,,2013-06-23 06:33:00,
2013-06-23 01:43:00,70.0,69.0,30.04,ENE,70,0.0,0.0,96,0.00,,,0.00,,2013-06-23 06:43:00,
2013-06-23 01:52:00,70.0,69.0,30.04,ENE,73,0.0,1.0,96,0.00,,,0.00,,2013-06-23 06:52:00,
2013-06-23 02:02:00,70.0,69.0,30.04,ENE,73,0.0,1.0,96,0.00,,,0.00,,2013-06-23 07:02:00,
2013-06-23 02:12:00,69.0,68.0,30.03,ENE,74,0.0,1.0,96,0.00,,,0.00,,2013-06-23 07:12:00,
2013-06-23 02:22:00,70.0,69.0,30.03,ENE,61,0.0,1.0,97,0.00,,,0.00,,2013-06-23 07:22:00,
2013-06-23 02:34:00,70.0,69.0,30.03,ENE,61,0.0,1.0,97,0.00,,,0.00,,2013-06-23 07:34:00,
2013-06-23 02:43:00,69.0,68.0,30.03,ENE,60,0.0,1.0,97,0.00,,,0.00,,2013-06-23 07:43:00,
2013-06-23 02:53:00,69.0,68.0,30.03,ENE,68,0.0,2.0,97,0.00,,,0.00,,2013-06-23 07:53:00,
2013-06-23 03:02:00,69.0,68.0,30.03,ENE,68,0.0,2.0,97,0.00,,,0.00,,2013-06-23 08:02:00,
2013-06-23 03:12:00,69.0,68.0,30.02,ENE,68,0.0,1.0,97,0.00,,,0.00,,2013-06-23 08:12:00,
2013-06-23 03:22:00,69.0,68.0,30.02,ENE,68,0.0,1.0,97,0.00,,,0.00,,2013-06-23 08:22:00,
2013-06-23 03:34:00,69.0,68.0,30.02,ENE,68,0.0,1.0,97,0.00,,,0.00,,2013-06-23 08:34:00,
2013-06-23 03:43:00,70.0,69.0,30.02,ENE,73,0.0,1.0,97,0.00,,,0.00,,2013-06-23 08:43:00,
2013-06-23 03:53:00,70.0,69.0,30.02,NE,54,1.0,2.0,97,0.00,,,0.00,,2013-06-23 08:53:00,
2013-06-23 04:02:00,70.0,69.0,30.02,NE,54,1.0,2.0,97,0.00,,,0.00,,2013-06-23 09:02:00,
2013-06-23 04:12:00,70.0,69.0,30.03,ENE,65,0.0,2.0,97,0.00,,,0.00,,2013-06-23 09:12:00,
2013-06-23 04:22:00,70.0,69.0,30.02,East,86,0.0,2.0,97,0.00,,,0.00,,2013-06-23 09:22:00,
2013-06-23 04:34:00,70.0,69.0,30.02,East,86,0.0,2.0,97,0.00,,,0.00,,2013-06-23 09:34:00,
2013-06-23 04:43:00,70.0,69.0,30.03,East,84,0.0,1.0,97,0.00,,,0.00,,2013-06-23 09:43:00,
2013-06-23 04:53:00,70.0,69.0,30.03,ENE,67,0.0,2.0,97,0.00,,,0.00,,2013-06-23 09:53:00,
2013-06-23 05:02:00,70.0,69.0,30.03,ENE,67,0.0,2.0,97,0.00,,,0.00,,2013-06-23 10:02:00,
2013-06-23 05:11:00,70.0,69.0,30.03,ESE,115,0.0,2.0,97,0.00,,,0.00,,2013-06-23 10:11:00,
2013-06-23 05:22:00,71.0,70.0,30.03,ENE,77,2.0,4.0,97,0.00,,,0.00,,2013-06-23 10:22:00,
2013-06-23 05:34:00,71.0,70.0,30.03,ENE,77,2.0,4.0,97,0.00,,,0.00,,2013-06-23 10:34:00,
2013-06-23 05:43:00,71.0,70.0,30.03,ENE,77,0.0,3.0,97,0.00,,,0.00,,2013-06-23 10:43:00,
2013-06-23 05:53:00,71.0,70.0,30.04,ENE,72,0.0,3.0,97,0.00,,,0.00,,2013-06-23 10:53:00,
2013-06-23 06:02:00,71.0,70.0,30.04,ENE,72,0.0,3.0,97,0.00,,,0.00,,2013-06-23 11:02:00,
2013-06-23 06:11:00,71.0,70.0,30.04,SE,125,0.0,3.0,97,0.00,,,0.00,,2013-06-23 11:11:00,
2013-06-23 06:22:00,71.0,70.0,30.05,ESE,109,0.0,3.0,97,0.00,,,0.00,,2013-06-23 11:22:00,
2013-06-23 06:33:00,71.0,70.0,30.05,ESE,109,0.0,3.0,97,0.00,,,0.00,,2013-06-23 11:33:00,
2013-06-23 06:43:00,71.0,70.0,30.05,SE,138,0.0,3.0,97,0.00,,,0.00,,2013-06-23 11:43:00,
2013-06-23 06:53:00,71.0,70.0,30.05,ESE,106,1.0,4.0,97,0.00,,,0.00,,2013-06-23 11:53:00,
2013-06-23 07:01:00,71.0,70.0,30.05,ESE,106,1.0,4.0,97,0.00,,,0.00,,2013-06-23 12:01:00,
2013-06-23 07:12:00,71.0,70.0,30.06,ESE,123,1.0,3.0,97,0.00,,,0.00,,2013-06-23 12:12:00,
2013-06-23 07:22:00,71.0,70.0,30.06,NE,49,1.0,3.0,97,0.00,,,0.00,,2013-06-23 12:22:00,
2013-06-23 07:33:00,71.0,70.0,30.06,NE,49,1.0,3.0,97,0.00,,,0.00,,2013-06-23 12:33:00,
2013-06-23 07:42:00,72.0,71.0,30.07,NNE,32,0.0,3.0,97,0.00,,,0.00,,2013-06-23 12:42:00,
2013-06-23 07:53:00,72.0,71.0,30.07,ENE,61,0.0,3.0,98,0.00,,,0.00,,2013-06-23 12:53:00,
2013-06-23 08:02:00,72.0,71.0,30.07,ENE,61,0.0,3.0,98,0.00,,,0.00,,2013-06-23 13:02:00,
2013-06-23 08:11:00,72.0,71.0,30.08,NE,55,2.0,4.0,97,0.00,,,0.00,,2013-06-23 13:11:00,
2013-06-23 08:23:00,73.0,72.0,30.09,ESE,122,1.0,4.0,96,0.00,,,0.00,,2013-06-23 13:23:00,
2013-06-23 08:34:00,73.0,72.0,30.09,ESE,122,1.0,4.0,96,0.00,,,0.00,,2013-06-23 13:34:00,
2013-06-23 08:43:00,75.0,73.0,30.09,ENE,68,2.0,3.0,93,0.00,,,0.00,,2013-06-23 13:43:00,
2013-06-23 08:53:00,76.0,73.0,30.09,SSW,203,1.0,7.0,90,0.00,,,0.00,,2013-06-23 13:53:00,
2013-06-23 09:05:00,76.0,73.0,30.09,SSW,203,1.0,7.0,90,0.00,,,0.00,,2013-06-23 14:05:00,
2013-06-23 09:11:00,76.0,73.0,30.09,NE,51,0.0,4.0,90,0.00,,,0.00,,2013-06-23 14:11:00,
2013-06-23 09:22:00,77.0,74.0,30.09,SE,131,1.0,4.0,89,0.00,,,0.00,,2013-06-23 14:22:00,
2013-06-23 09:34:00,77.0,74.0,30.09,SE,131,1.0,4.0,89,0.00,,,0.00,,2013-06-23 14:34:00,
2013-06-23 09:44:00,77.0,73.0,30.09,ENE,60,1.0,5.0,88,0.00,,,0.00,,2013-06-23 14:44:00,
2013-06-23 09:52:00,78.0,73.0,30.10,NE,40,1.0,5.0,86,0.00,,,0.00,,2013-06-23 14:52:00,
2013-06-23 10:05:00,78.0,73.0,30.10,NE,40,1.0,5.0,86,0.00,,,0.00,,2013-06-23 15:05:00,
2013-06-23 10:12:00,78.0,73.0,30.10,East,85,0.0,2.0,86,0.00,,,0.00,,2013-06-23 15:12:00,
2013-06-23 10:23:00,79.0,74.0,30.09,SE,124,1.0,5.0,86,0.00,,,0.00,,2013-06-23 15:23:00,
2013-06-23 10:35:00,79.0,74.0,30.09,SE,124,1.0,5.0,86,0.00,,,0.00,,2013-06-23 15:35:00,
2013-06-23 10:43:00,80.0,75.0,30.09,ESE,120,0.0,5.0,84,0.00,,,0.00,,2013-06-23 15:43:00,
2013-06-23 10:52:00,81.0,75.0,30.09,SSW,210,2.0,5.0,82,0.00,,,0.00,,2013-06-23 15:52:00,
2013-06-23 11:06:00,81.0,75.0,30.09,SSW,210,2.0,5.0,82,0.00,,,0.00,,2013-06-23 16:06:00,
2013-06-23 11:12:00,82.0,74.0,30.09,ENE,58,1.0,6.0,78,0.00,,,0.00,,2013-06-23 16:12:00,
2013-06-23 11:22:00,83.0,75.0,30.09,South,187,0.0,5.0,78,0.00,,,0.00,,2013-06-23 16:22:00,
2013-06-23 11:36:00,83.0,75.0,30.09,South,187,0.0,5.0,78,0.00,,,0.00,,2013-06-23 16:36:00,
2013-06-23 12:06:00,85.0,76.0,30.09,SE,131,0.0,6.0,74,0.00,,,0.00,,2013-06-23 17:06:00,
2013-06-23 12:12:00,85.0,75.0,30.09,SSW,205,1.0,5.0,72,0.00,,,0.00,,2013-06-23 17:12:00,
2013-06-23 12:22:00,84.0,73.0,30.09,SW,222,5.0,12.0,69,0.00,,,0.00,,2013-06-23 17:22:00,
2013-06-23 12:33:00,84.0,73.0,30.09,SW,222,5.0,12.0,69,0.00,,,0.00,,2013-06-23 17:33:00,
2013-06-23 12:43:00,79.0,73.0,30.09,West,276,2.0,10.0,82,0.00,,,0.00,,2013-06-23 17:43:00,
2013-06-23 12:53:00,77.0,73.0,30.09,SSW,201,1.0,4.0,88,0.02,,,0.02,,2013-06-23 17:53:00,
2013-06-23 13:01:00,77.0,73.0,30.09,SSW,201,1.0,4.0,88,0.02,,,0.02,,2013-06-23 18:01:00,
2013-06-23 13:12:00,77.0,73.0,30.09,SE,146,1.0,5.0,87,0.02,,,0.02,,2013-06-23 18:12:00,
2013-06-23 13:22:00,78.0,74.0,30.09,ESE,123,1.0,5.0,87,0.02,,,0.02,,2013-06-23 18:22:00,
2013-06-23 13:34:00,78.0,74.0,30.09,ESE,123,1.0,5.0,87,0.02,,,0.02,,2013-06-23 18:34:00,
2013-06-23 13:43:00,78.0,74.0,30.07,SE,138,1.0,6.0,88,0.01,,,0.02,,2013-06-23 18:43:00,
2013-06-23 13:53:00,78.0,74.0,30.07,WSW,250,3.0,9.0,87,0.00,,,0.02,,2013-06-23 18:53:00,
2013-06-23 14:01:00,78.0,74.0,30.07,WSW,250,3.0,9.0,87,0.00,,,0.02,,2013-06-23 19:01:00,
2013-06-23 14:11:00,78.0,73.0,30.07,WSW,243,0.0,5.0,86,0.00,,,0.02,,2013-06-23 19:11:00,
2013-06-23 14:21:00,78.0,73.0,30.07,SW,219,1.0,6.0,85,0.00,,,0.02,,2013-06-23 19:21:00,
2013-06-23 14:32:00,78.0,73.0,30.07,SW,219,1.0,6.0,85,0.00,,,0.02,,2013-06-23 19:32:00,
2013-06-23 14:43:00,78.0,73.0,30.07,SSW,198,0.0,3.0,85,0.00,,,0.02,,2013-06-23 19:43:00,
2013-06-23 14:53:00,78.0,73.0,30.07,SW,217,0.0,4.0,86,0.00,,,0.02,,2013-06-23 19:53:00,
2013-06-23 15:02:00,78.0,73.0,30.07,SW,217,0.0,4.0,86,0.00,,,0.02,,2013-06-23 20:02:00,
2013-06-23 15:12:00,79.0,74.0,30.06,SSW,197,1.0,3.0,85,0.00,,,0.02,,2013-06-23 20:12:00,
2013-06-23 15:24:00,79.0,73.0,30.06,SW,222,0.0,5.0,83,0.00,,,0.02,,2013-06-23 20:24:00,
2013-06-23 15:33:00,79.0,73.0,30.06,SW,222,0.0,5.0,83,0.00,,,0.02,,2013-06-23 20:33:00,
2013-06-23 15:42:00,79.0,73.0,30.05,SSW,205,0.0,4.0,83,0.00,,,0.02,,2013-06-23 20:42:00,
2013-06-23 15:53:00,80.0,73.0,30.04,SSW,194,1.0,7.0,79,0.00,,,0.02,,2013-06-23 20:53:00,
2013-06-23 16:01:00,80.0,73.0,30.04,SSW,194,1.0,7.0,79,0.00,,,0.02,,2013-06-23 21:01:00,
2013-06-23 16:12:00,80.0,73.0,30.04,South,172,0.0,4.0,80,0.00,,,0.02,,2013-06-23 21:12:00,
2013-06-23 16:22:00,80.0,73.0,30.04,SSW,203,0.0,5.0,80,0.00,,,0.02,,2013-06-23 21:22:00,
2013-06-23 16:34:00,80.0,73.0,30.04,SSW,203,0.0,5.0,80,0.00,,,0.02,,2013-06-23 21:34:00,
2013-06-23 16:44:00,80.0,74.0,30.04,West,278,1.0,3.0,82,0.00,,,0.02,,2013-06-23 21:44:00,
2013-06-23 16:52:00,79.0,73.0,30.03,SW,235,0.0,4.0,82,0.00,,,0.02,,2013-06-23 21:52:00,
2013-06-23 17:01:00,79.0,73.0,30.03,SW,235,0.0,4.0,82,0.00,,,0.02,,2013-06-23 22:01:00,
2013-06-23 17:12:00,79.0,73.0,30.03,WSW,250,0.0,2.0,83,0.00,,,0.02,,2013-06-23 22:12:00,
2013-06-23 17:22:00,80.0,74.0,30.04,SSW,203,0.0,2.0,81,0.00,,,0.02,,2013-06-23 22:22:00,
2013-06-23 17:32:00,80.0,74.0,30.04,SSW,203,0.0,2.0,81,0.00,,,0.02,,2013-06-23 22:32:00,
2013-06-23 17:43:00,80.0,74.0,30.04,SE,131,0.0,2.0,81,0.00,,,0.02,,2013-06-23 22:43:00,
2013-06-23 17:53:00,80.0,74.0,30.04,South,171,0.0,1.0,82,0.00,,,0.02,,2013-06-23 22:53:00,
2013-06-23 18:01:00,80.0,74.0,30.04,South,171,0.0,1.0,82,0.00,,,0.02,,2013-06-23 23:01:00,
2013-06-23 18:11:00,80.0,74.0,30.04,SW,215,0.0,1.0,82,0.00,,,0.02,,2013-06-23 23:11:00,
2013-06-23 18:22:00,79.0,73.0,30.05,SE,145,0.0,1.0,83,0.00,,,0.02,,2013-06-23 23:22:00,
2013-06-23 18:33:00,79.0,73.0,30.05,SE,145,0.0,1.0,83,0.00,,,0.02,,2013-06-23 23:33:00,
2013-06-23 18:44:00,79.0,74.0,30.05,SE,133,0.0,1.0,84,0.00,,,0.02,,2013-06-23 23:44:00,
2013-06-23 18:52:00,79.0,75.0,30.04,SE,132,0.0,1.0,87,0.00,,,0.02,,2013-06-23 23:52:00,
2013-06-23 19:01:00,79.0,75.0,30.04,SE,132,0.0,1.0,87,0.00,,,0.02,,2013-06-24 00:01:00,
2013-06-23 19:11:00,78.0,74.0,30.05,SE,132,0.0,0.0,89,0.00,,,0.02,,2013-06-24 00:11:00,
2013-06-23 19:22:00,77.0,74.0,30.05,SE,132,0.0,1.0,90,0.00,,,0.02,,2013-06-24 00:22:00,
2013-06-23 19:33:00,77.0,74.0,30.05,SE,132,0.0,1.0,90,0.00,,,0.02,,2013-06-24 00:33:00,
2013-06-23 19:42:00,77.0,74.0,30.05,SE,133,0.0,0.0,90,0.00,,,0.02,,2013-06-24 00:42:00,
2013-06-23 19:52:00,76.0,73.0,30.05,SE,132,0.0,0.0,91,0.00,,,0.02,,2013-06-24 00:52:00,
2013-06-23 20:02:00,76.0,73.0,30.05,SE,132,0.0,0.0,91,0.00,,,0.02,,2013-06-24 01:02:00,
2013-06-23 20:11:00,76.0,73.0,30.06,SE,132,0.0,0.0,91,0.00,,,0.02,,2013-06-24 01:11:00,
2013-06-23 20:22:00,75.0,73.0,30.06,SE,133,0.0,0.0,92,0.00,,,0.02,,2013-06-24 01:22:00,
2013-06-23 20:32:00,75.0,73.0,30.06,SE,133,0.0,0.0,92,0.00,,,0.02,,2013-06-24 01:32:00,
2013-06-23 20:42:00,75.0,73.0,30.06,SE,132,0.0,0.0,93,0.00,,,0.02,,2013-06-24 01:42:00,
2013-06-23 20:53:00,74.0,72.0,30.06,SE,132,0.0,0.0,94,0.00,,,0.02,,2013-06-24 01:53:00,
2013-06-23 21:02:00,74.0,72.0,30.06,SE,132,0.0,0.0,94,0.00,,,0.02,,2013-06-24 02:02:00,
2013-06-23 21:11:00,74.0,72.0,30.07,SE,132,0.0,0.0,94,0.00,,,0.02,,2013-06-24 02:11:00,
2013-06-23 21:22:00,74.0,72.0,30.07,ESE,116,0.0,1.0,95,0.00,,,0.02,,2013-06-24 02:22:00,
2013-06-23 21:33:00,74.0,72.0,30.07,ESE,116,0.0,1.0,95,0.00,,,0.02,,2013-06-24 02:33:00,
2013-06-23 21:42:00,74.0,72.0,30.07,ESE,116,0.0,0.0,95,0.00,,,0.02,,2013-06-24 02:42:00,
2013-06-23 21:53:00,74.0,73.0,30.09,ESE,115,0.0,1.0,96,0.00,,,0.02,,2013-06-24 02:53:00,
2013-06-23 22:01:00,74.0,73.0,30.09,ESE,115,0.0,1.0,96,0.00,,,0.02,,2013-06-24 03:01:00,
2013-06-23 22:11:00,73.0,72.0,30.09,East,85,0.0,1.0,96,0.00,,,0.02,,2013-06-24 03:11:00,
2013-06-23 22:22:00,73.0,72.0,30.08,ENE,72,0.0,1.0,96,0.00,,,0.02,,2013-06-24 03:22:00,
2013-06-23 22:33:00,73.0,72.0,30.08,ENE,72,0.0,1.0,96,0.00,,,0.02,,2013-06-24 03:33:00,
2013-06-23 22:43:00,73.0,72.0,30.09,ENE,72,0.0,0.0,96,0.00,,,0.02,,2013-06-24 03:43:00,
2013-06-23 22:53:00,73.0,72.0,30.09,ENE,71,0.0,0.0,96,0.00,,,0.02,,2013-06-24 03:53:00,
2013-06-23 23:02:00,73.0,72.0,30.09,ENE,71,0.0,0.0,96,0.00,,,0.02,,2013-06-24 04:02:00,
2013-06-23 23:12:00,73.0,72.0,30.09,ENE,70,0.0,1.0,97,0.00,,,0.02,,2013-06-24 04:12:00,
2013-06-23 23:22:00,73.0,72.0,30.09,ENE,70,0.0,1.0,97,0.00,,,0.02,,2013-06-24 04:22:00,
2013-06-23 23:33:00,73.0,72.0,30.09,ENE,70,0.0,0.0,97,0.00,,,0.02,,2013-06-24 04:33:00,
2013-06-23 23:43:00,73.0,72.0,30.09,ENE,70,0.0,0.0,97,0.00,,,0.02,,2013-06-24 04:43:00,
2013-06-23 23:52:00,72.0,71.0,30.09,ENE,71,0.0,0.0,97,0.00,,,0.02,,2013-06-24 04:52:00,